AirNav   Air Wisconsin pilot careers
 
 1083 users online  

7B9 Ellington Airport
Ellington, Connecticut, USA

GOING TO ELLINGTON?


FAA INFORMATION EFFECTIVE 08 NOVEMBER 2018

Location

FAA Identifier: 7B9
Lat/Long: 41-55-31.5000N / 072-27-25.6000W
41-55.525000N / 072-27.426667W
41.9254167 / -72.4571111
(estimated)
Elevation: 253 ft. / 77 m (estimated)
Variation: 15W (1985)
From city: 2 miles N of ELLINGTON, CT
Time zone: UTC -5 (UTC -4 during Daylight Saving Time)
Zip code: 06029

Airport Operations

Airport use: Open to the public
Activation date: 04/1968
Control tower: no
ARTCC: BOSTON CENTER
FSS: BRIDGEPORT FLIGHT SERVICE STATION
NOTAMs facility: BDR (NOTAM-D service available)
Attendance: 0800-1800
Pattern altitude: 1253 ft. MSL
Wind indicator: lighted
Segmented circle: no
Lights: DUSK-2400. NSTD LIRL RY 01/19 OPERATES DUSK - 0000; AFTER 0000 FOR NSTD LIRL RY 01/19 CALL 860-871-2054.

Airport Communications

CTAF/UNICOM: 123.0
WX ASOS at BDL (10 nm W): PHONE 860-386-3480
WX ASOS at HFD (14 nm SW): PHONE 860-527-5837
WX ASOS at IJD (16 nm SE): 133.675 (860-456-8839)
WX ASOS at BAF (18 nm NW): 127.1 (413-568-2267)

Nearby radio navigation aids

VOR radial/distance  VOR name  Freq  Var
HFDr026/17.5HARTFORD VOR/DME114.9013W
BAFr155/18.3BARNES VORTAC113.0014W
PUTr280/27.4PUTNAM VOR/DME117.4014W
ORWr331/30.2NORWICH VOR/DME110.0014W
CTRr148/31.0CHESTER VOR/DME115.1013W
MADr029/38.2MADISON VOR/DME110.4013W

Airport Services

Fuel available: 100LL
Parking: hangars and tiedowns
Airframe service: MAJOR
Powerplant service: MAJOR

Runway Information

Runway 1/19

Dimensions: 1800 x 50 ft. / 549 x 15 m
Surface: asphalt, in fair condition
Weight bearing capacity: 
Single wheel: 9.0
Runway edge lights: non-standard
NSTD LIRL DUE TO SPACING.
Runway edge markings: RY 01/19 MARKINGS FADED.
RUNWAY 1  RUNWAY 19
Latitude: 41-55.377868N41-55.673293N
Longitude: 072-27.409568W072-27.442492W
Traffic pattern: leftleft
Runway heading: 010 magnetic, 355 true190 magnetic, 175 true
Markings: numbers only, in poor conditionnumbers only, in poor condition
Obstructions: 33 ft. trees, 440 ft. from runway, 60 ft. left of centerline, 7:1 slope to clear
RY 01 HAS +25 FT BRUSH 25 FT FM THLD; 93 FT LEFT; 8 FT SEASONAL CORN CROP 150 FT FM THLD ACROSS RY;+6FT BRUSH 52 FT FM THLD.
67 ft. trees, 1400 ft. from runway, 240 ft. left of centerline, 17:1 slope to clear

Airport Ownership and Management from official FAA records

Ownership: Privately-owned
Owner: J.L.M. ASSOC
73 SERGEANT ST
HOLYOKE, MA 01040
Phone 413-539-9861
Manager: LARRY DUROCHER
P.O. BOX 13
SOUTHWICK, MA 01077
Phone 860-614-1854

Airport Operational Statistics

Aircraft based on the field: 34
Single engine airplanes: 20
Helicopters: 8
Ultralights: 6
    
Aircraft operations: avg 74/day *
99% local general aviation
1% transient general aviation
<1% air taxi
* for 12-month period ending 31 March 2015

Additional Remarks

ATND 1300-2300Z. PAJA. EXTSV HEL TRNG OPS. ACFT TFC PAT ON E SIDE OF ARPT ONLY (1250' MSL). HEL TFC PAT ON W SIDE OF ARPT ONLY (1000' MSL).
NON-STD THR LGTS.
HANGARS EAST OF RUNWAY PENETRATE PART 77 SURFACES (7:1 SIDE SLOPES) RWY 19 APPROACH END
FOR CD CTC YANKEE APCH AT 860-386-3597

Instrument Procedures

There are no published instrument procedures at 7B9.

Some nearby airports with instrument procedures:

KBDL - Bradley International Airport (10 nm W)
KHFD - Hartford-Brainard Airport (14 nm SW)
KIJD - Windham Airport (16 nm SE)
KCEF - Westover Air Reserve Base/Metropolitan Airport (16 nm N)
KBAF - Westfield-Barnes Regional Airport (18 nm NW)
 
Loc | Ops | Rwys | IFR | FBO | Links
Com | Nav | Svcs | Stats | Notes

Silver City Flying Club
 
Area around 7B9 (Ellington Airport)
 
Road maps at: MapQuest Bing Google
 
Aerial photo
WARNING: Photo may not be current or correct
Aerial photo of 7B9 (Ellington Airport)
Photo by David Gerstein
Photo taken 25-Nov-2017
looking north.

Do you have a better or more recent aerial photo of Ellington Airport that you would like to share? If so, please send us your photo.

 
Sectional chart

 
Airport distance calculator
Flying to Ellington Airport? Find the distance to fly.

From to 7B9

Sunrise and sunset
Times for 14-Nov-2018
 Local
(UTC-5)
 Zulu
(UTC)
Morning civil twilight06:0911:09
Sunrise06:3911:39
Sunset16:2921:29
Evening civil twilight16:5921:59

Current date and time
Zulu (UTC)  14-Nov-2018 23:14:37
Local (UTC-5)  14-Nov-2018 18:14:37
 
METAR
KBDL 
10nm W 
142251Z 31010KT 10SM BKN220 OVC250 M02/M12 A3050 RMK AO2 SLP329 T10171122
KHFD 
14nm SW 
142253Z 32008KT 10SM CLR M01/M13 A3052 RMK AO2 SLP333 T10061128
KIJD 
16nm SE 
142252Z AUTO 30006KT 10SM CLR M01/M12 A3049 RMK AO2 SLP326 T10111117
KCEF 
17nm N 
142256Z 33010KT 10SM SCT200 BKN250 M02/M15 A3047 RMK AO2A SLP327 T10191147
KBAF 
19nm NW 
142253Z 31008KT 10SM CLR M02/M14 A3049 RMK AO2 SLP331 T10171144
TAF
KBDL 
10nm W 
142159Z 1422/1524 31010G20KT P6SM FEW060 FM150200 34007KT P6SM BKN250 FM150800 VRB03KT P6SM SCT250 FM152000 09005KT P6SM OVC110 FM152200 08006KT 1SM -SN BKN015 OVC070
KCEF 
17nm N 
141900Z 1419/1601 31015G25KT 9999 FEW060 SCT250 520004 520409 QNH3036INS TEMPO 1419/1421 32025G40KT 530006 BECMG 1423/1424 32010G18KT 9999 BKN250 QNH3048INS BECMG 1501/1502 VRB06KT 9999 BKN250 QNH3050INS BECMG 1513/1514 08006KT 9999 FEW020 BKN160 OVC250 QNH3055INS BECMG 1521/1522 09006KT 9999 BKN015 OVC045 620159 QNH3032INS BECMG 1523/1524 07009KT 4800 -SN BR BKN008 OVC015 620089 QNH3024INS TX01/1419Z TNM13/1511Z
KBAF 
19nm NW 
141736Z 1418/1518 31020G40KT P6SM FEW060 FM142100 31015G25KT P6SM SKC FM142300 33011KT P6SM SCT250 FM150200 34007KT P6SM SCT250 FM150600 00000KT P6SM SCT250
NOTAMs
Click for the latest NOTAMs
NOTAMs are issued by the DoD/FAA and will open in a separate window not controlled by AirNav.

 

 
 

FBO, Fuel Providers, and Aircraft Ground Support

  
 Business Name 
 
 Contact 
 
 Services / Description 
 
Fuel Prices
 
Comments
  
Northeast Helicopters 860-871-2054
no information available

If you are affiliated with Northeast Helicopters and would like to show here your services, contact info, web link, logo, and more, click here
100LL
SS $5.90 
 Updated 12-Sep-2018
 
   write
SS=Self service
Update Fuel Prices
 

Would you like to see your business listed on this page?

 If your business provides an interesting product or service to pilots, flight crews, aircraft, or users of the Ellington Airport, you should consider listing it here.  To start the listing process, click on the button below
 
Add a business
 

Other Pages about Ellington Airport

www.ellingtonairport.com
 
Update a link
 
Copyright © AirNav, LLC. All rights reserved. Privacy Policy  Contact